THEMIS E

Last updated on Jan. 25, 2020, 4:43 a.m. UTC

1 30798U 07004E   20024.46369114 -.00000130  00000-0  00000+0 0  9994
2 30798  10.5175  48.3478 8443639  18.3326 359.7092  0.81732295 45418
UTC
Height (km)
Latitude
Longitude
Inclination
Orbital Period
UTC large
Height (km)
Speed (km/s)
/
Latitude / Longitude
Inclination (degrees)
Orbital Period (minutes)
Azimuth
Elevation
Range (km)
Doppler Factor
iOS Compass Heading
iOS Angle

Next 30 passes for location: Hong Kong

Rise time Rise Azimuth (degrees) Set time Set Azimuth (degrees) Duration Max altitude (degrees)

No matching passes for this satellites